Regional Weather Roundup
Issued by NWS

Home | Current Version | Previous Version | Text Only | Print | Product List | Glossary Off
Versions: 1 2 3 4 5 6 7 8 9 10 11 12 13 14 15 16 17 18 19 20 21 22 23 24 25 26 27 28 29 30 31 32 33 34 35 36 37 38 39 40 41 42 43 44 45 46 47 48 49 50

000
ASUS43 KMKX 261321
RWRWI

WISCONSIN REGIONAL WEATHER ROUNDUP
NATIONAL WEATHER SERVICE MILWAUKEE/SULLIVAN WI
800 AM CDT WED APR 26 2017

NOTE: "FAIR" INDICATES FEW OR NO CLOUDS BELOW 12,000 FEET WITH NO
SIGNIFICANT WEATHER AND/OR OBSTRUCTIONS TO VISIBILITY.

WIZ001-002-006>008-014>016-023>028-261400-
NORTHWEST WISCONSIN

CITY           SKY/WX    TMP DP  RH WIND       PRES   REMARKS
SUPERIOR ARPT  MIX PCPN  32  31  95 NE18G28   29.62F WCI  21
ASHLAND        FRZ RAIN  32  30  92 NE22G33   29.61F FOG     WCI  19
HAYWARD        CLOUDY    33  31  92 NE15G24   29.51F WCI  23
SIREN          RAIN      33  32  95 NE10G24   29.53F WCI  25
CUMBERLAND     CLOUDY    32  32 100 N13G18    29.47S WCI  22
RICE LAKE      DRIZZLE   36  34  93 N16G23    29.47F WCI  26
CHETEK         DRIZZLE   38  37  96 N9        29.45F WCI  31
LADYSMITH      LGT RAIN  37  36  95 NE15      29.47F WCI  28
EAU CLAIRE     LGT RAIN  41  39  93 NE12      29.40F
MENOMONIE      DRIZZLE   39  39 100 N12G20    29.43F WCI  32
NEW RICHMOND   LGT RAIN  35  35  97 N12       29.47F WCI  27
OSCEOLA        LGT RAIN  35  35 100 N7        29.53S WCI  29
$$

WIZ003>005-009-010-017-018-261400-
NORTH CENTRAL WISCONSIN

CITY           SKY/WX    TMP DP  RH WIND       PRES   REMARKS
MANITOWISH WTR DRIZZLE   34  34 100 N8        29.48F WCI  27
ARBOR VITAE    CLOUDY    39  38  94 NE5       29.46F
WOODRUFF       CLOUDY    39  38  94 NE5       29.46F
RHINELANDER    CLOUDY    48  47  96 NE6       29.45F
EAGLE RIVER    CLOUDY    41  41 100 NE9       29.47F
LAND O LAKES   LGT RAIN  37  37 100 NE7       29.50F WCI  32
PHILLIPS       DRIZZLE   36  36 100 N10       29.46S WCI  28
TOMAHAWK       CLOUDY    46  45  97 CALM      29.44F FOG
MEDFORD        LGT RAIN  47  47  97 NE7       29.41S
MERRILL        LGT RAIN  52  52 100 E6        29.43F
$$

WIZ029-030-035-036-043>047-261400-
CENTRAL WISCONSIN

CITY           SKY/WX    TMP DP  RH WIND       PRES   REMARKS
WAUSAU         HVY RAIN  52  52 100 E12       29.37F FOG
MOSINEE        RAIN      52  52 100 E9        29.40F
MARSHFIELD     LGT RAIN  55  53  93 E7        29.37F FOG
STEVENS POINT  CLOUDY    53  53 100 NE7       29.40F FOG
WAUPACA        CLOUDY    59  56  90 CALM      29.41S
WAUTOMA        LGT RAIN  57  56  96 MISG        N/A
WISC RAPIDS    CLOUDY    56  56 100 SE5       29.39F FOG
CAMP DOUGLAS   CLOUDY    55  55 100 CALM      29.36F
$$

WIZ011>013-019>022-031-037>040-048>050-261400-
NORTHEAST WISCONSIN

CITY           SKY/WX    TMP DP  RH WIND       PRES   REMARKS
ANTIGO         DRIZZLE   49  49 100 E10       29.44F
SHAWANO        CLOUDY    53  50  92 NE8       29.44F
OCONTO         CLOUDY    50  48  93 E5        29.45F
STURGEON BAY   MOSUNNY   59  53  80 S12       29.47F
GREEN BAY      MOSUNNY   59  55  87 SE8       29.42F
MANITOWOC      CLOUDY    53  48  83 S15       29.47F
APPLETON       PTSUNNY   59  52  77 SE8       29.40F
CLINTONVILLE   CLOUDY    52  52 100 NE7       29.42F
OSHKOSH        CLOUDY    63  54  72 SE12      29.40F
$$

WIZ032>034-041-042-053>061-261400-
SOUTHWEST WISCONSIN

CITY           SKY/WX    TMP DP  RH WIND       PRES   REMARKS
LA CROSSE      CLOUDY    57  55  93 NW6       29.36S FOG
SPARTA         CLOUDY    54  54 100 CALM      29.37S FOG
VIROQUA        CLOUDY    56  55  96 S8        29.37S
BOSCOBEL       CLOUDY    60  57  89 CALM      29.37S
PRAIRIE DU CHI CLOUDY    57  56  97 SE3       29.37R
PLATTEVILLE    PTSUNNY   60  59  99 S7        29.39F
$$

WIZ056-057-062-063-064-067-068-261400-
SOUTH CENTRAL WISCONSIN

CITY           SKY/WX    TMP DP  RH WIND       PRES   REMARKS
REEDSBURG      CLOUDY    62  55  77 S5        29.37R
BARABOO/DELLS  CLOUDY    62  53  72 S12       29.37S
LONE ROCK      CLOUDY    64  54  69 VRB3      29.37R
MINERAL POINT  LGT RAIN  61  59  94 S6        29.39F
MADISON        TSTM      59  56  89 S16       29.39S FOG
MIDDLETON      CLOUDY    61  56  84 SE6       29.39S
WATERTOWN      CLOUDY    62  56  81 SE9       29.40F
MONROE         HVY RAIN  59  54  82 S14       29.41R
JANESVILLE     CLOUDY    64  54  68 SE13G18   29.40F
$$

WIZ051-052-058>065-066-070>072-261400-
SOUTHEAST WISCONSIN

CITY           SKY/WX    TMP DP  RH WIND       PRES   REMARKS
MILWAUKEE      PTSUNNY   64  55  72 S13       29.46S
WAUKESHA       SUNNY     63  54  72 SE14G25   29.45R
MILWAUKEE/TIMM SUNNY     64  52  63 S13G18    29.45S
RACINE         SUNNY     59  51  75 S17G24    29.48R
KENOSHA        CLOUDY    64  55  72 S12       29.47R
FOND DU LAC    CLOUDY    63  53  70 SE14      29.41F
SHEBOYGAN      MOSUNNY   55  51  86 S10       29.46S
WEST BEND      CLOUDY    63  55  77 SE9       29.44S
JUNEAU         PTSUNNY   62  54  76 SE8       29.42F
$$

LSZ147-162-261400-
LAKE SUPERIOR

STATION/POSITION TIME  TEMP    WIND        PRES    WAVE
                       AIR SEA DIR/SP/G            HT/PER
                 (UTC) (F)     (DEG/KT/KT) (MB)    (FT/S)
DEVILS ISLAND    1300   32      40/ 31/ 35 1004.4F
PORT WING        1240   33      40/ 37/ 47 1003.0F
SAXON HARBOR     1230   34      40/ 25/ 32 1002.0F
$$

LMZ867-665-643>646-261400-
LAKE MICHIGAN

STATION/POSITION TIME  TEMP    WIND        PRES    WAVE
                       AIR SEA DIR/SP/G            HT/PER
                 (UTC) (F)     (DEG/KT/KT) (MB)    (FT/S)
CHAMBERS ISLAND  1240   41      10/  6/  7  998.6F
N MID LAKE BUOY  1250   42 37  100/ 12/ 14  999.8F   2/ 4
NORTHPORT PIER   1240   45     120/  3/  5  999.0F
SISTER BAY       1121   49     110/  7/  9   N/A
KEWAUNEE LAKESHO 1254   51     170/ 12/ 13  997.9F
SHEBOYGAN LAKESH 1300   47     180/ 11/ 12  997.8S
PORT WASHINGTON  1240   50     170/  5/  6  999.0S
MILWAUKEE LAKESH 1300   50     150/ 13/ 14   N/A
S MID LAKE BUOY  1250   48 41  130/ 14/ 14  999.3R   2/ 4
KENOSHA   LAKESH 1300   52     170/ 16/ 18  998.3
$$

TC  - TEMPERATURE IN CELSIUS
VSB - VISIBILITY IN STATUTE MILES
WCI - WIND CHILL INDEX
HX  - HEAT INDEX





USA.gov is the U.S. government's official web portal to all federal, state and local government web resources and services.